Back to catalog

ATLAS 5 CENTAUR DEB

AliveHEO
NORAD 52972·DEBRIS·🇺🇸 United States

Launched Oct 17, 2018 from Cape Canaveral Space Force Station

Loading…

Next Passes (next 24 hours)

TLE

AgingSource: Space-Track

Epoch: Aug 29, 2026, 13:05 UTC

1 52972U 18079GW  26241.54562823 -.00000116  00000-0  00000-0 0  9999
2 52972  13.3000  10.3458 4480232  12.3269 355.6516  1.93875165 35825

Track ATLAS 5 CENTAUR DEB in real time with AllMySat

Download on the App Store